Time,TemperatureF,DewpointF,PressureIn,WindDirection,WindDirectionDegrees,WindSpeedMPH,WindSpeedGustMPH,Humidity,HourlyPrecipIn,Conditions,Clouds,dailyrainin,SoftwareType,DateUTC
2013-08-08 00:01:00,65.0,64.0,30.15,West,278,1.0,4.0,95,0.00,,,0.11,,2013-08-08 04:01:00,
2013-08-08 00:11:00,65.0,63.0,30.14,WSW,248,2.0,15.0,94,0.00,,,0.11,,2013-08-08 04:11:00,
2013-08-08 00:33:00,65.0,63.0,30.14,West,281,4.0,10.0,93,0.00,,,0.11,,2013-08-08 04:33:00,
2013-08-08 00:43:00,65.0,63.0,30.14,WSW,258,2.0,10.0,92,0.00,,,0.11,,2013-08-08 04:43:00,
2013-08-08 01:11:00,65.0,63.0,30.14,WSW,252,3.0,9.0,93,0.00,,,0.11,,2013-08-08 05:11:00,
2013-08-08 01:43:00,65.0,63.0,30.14,WSW,255,1.0,8.0,93,0.00,,,0.11,,2013-08-08 05:43:00,
2013-08-08 01:52:00,65.0,63.0,30.14,SW,223,4.0,14.0,93,0.00,,,0.11,,2013-08-08 05:52:00,
2013-08-08 02:01:00,65.0,63.0,30.14,SW,223,4.0,14.0,93,0.00,,,0.11,,2013-08-08 06:01:00,
2013-08-08 02:12:00,65.0,63.0,30.14,SW,236,2.0,7.0,93,0.00,,,0.11,,2013-08-08 06:12:00,
2013-08-08 02:22:00,65.0,63.0,30.13,WSW,243,3.0,11.0,93,0.00,,,0.11,,2013-08-08 06:22:00,
2013-08-08 02:32:00,65.0,63.0,30.13,WSW,243,3.0,11.0,93,0.00,,,0.11,,2013-08-08 06:32:00,
2013-08-08 02:43:00,66.0,64.0,30.13,SSW,210,2.0,9.0,92,0.00,,,0.11,,2013-08-08 06:43:00,
2013-08-08 02:52:00,65.0,63.0,30.13,West,277,3.0,10.0,92,0.00,,,0.11,,2013-08-08 06:52:00,
2013-08-08 03:02:00,65.0,63.0,30.13,WNW,282,3.0,9.0,92,0.00,,,0.11,,2013-08-08 07:02:00,
2013-08-08 03:12:00,65.0,63.0,30.13,WNW,282,3.0,9.0,92,0.00,,,0.11,,2013-08-08 07:12:00,
2013-08-08 03:22:00,65.0,62.0,30.13,SW,216,2.0,10.0,91,0.00,,,0.11,,2013-08-08 07:22:00,
2013-08-08 03:32:00,66.0,63.0,30.13,West,267,2.0,10.0,89,0.00,,,0.11,,2013-08-08 07:32:00,
2013-08-08 03:43:00,66.0,63.0,30.13,West,267,2.0,10.0,89,0.00,,,0.11,,2013-08-08 07:43:00,
2013-08-08 03:53:00,66.0,63.0,30.13,WSW,243,3.0,11.0,90,0.00,,,0.11,,2013-08-08 07:53:00,
2013-08-08 04:02:00,66.0,63.0,30.13,WSW,248,3.0,11.0,90,0.00,,,0.11,,2013-08-08 08:02:00,
2013-08-08 04:11:00,66.0,63.0,30.13,WSW,248,3.0,11.0,90,0.00,,,0.11,,2013-08-08 08:11:00,
2013-08-08 04:22:00,66.0,63.0,30.13,SSW,210,4.0,11.0,90,0.00,,,0.11,,2013-08-08 08:22:00,
2013-08-08 04:32:00,66.0,63.0,30.12,SSW,195,2.0,12.0,89,0.00,,,0.11,,2013-08-08 08:32:00,
2013-08-08 04:43:00,66.0,63.0,30.12,SSW,195,2.0,12.0,89,0.00,,,0.11,,2013-08-08 08:43:00,
2013-08-08 04:53:00,66.0,63.0,30.12,SW,222,5.0,11.0,89,0.00,,,0.11,,2013-08-08 08:53:00,
2013-08-08 05:02:00,66.0,63.0,30.12,SW,221,4.0,15.0,89,0.00,,,0.11,,2013-08-08 09:02:00,
2013-08-08 05:12:00,66.0,63.0,30.12,SW,221,4.0,15.0,89,0.00,,,0.11,,2013-08-08 09:12:00,
2013-08-08 05:22:00,66.0,63.0,30.12,SW,227,3.0,10.0,90,0.00,,,0.11,,2013-08-08 09:22:00,
2013-08-08 05:32:00,65.0,62.0,30.11,SW,233,2.0,9.0,90,0.00,,,0.11,,2013-08-08 09:32:00,
2013-08-08 05:43:00,65.0,62.0,30.11,SW,233,2.0,9.0,90,0.00,,,0.11,,2013-08-08 09:43:00,
2013-08-08 05:53:00,65.0,62.0,30.12,West,268,3.0,13.0,90,0.00,,,0.11,,2013-08-08 09:53:00,
2013-08-08 06:01:00,65.0,62.0,30.12,West,268,3.0,13.0,90,0.00,,,0.11,,2013-08-08 10:01:00,
2013-08-08 06:12:00,65.0,62.0,30.12,West,269,2.0,12.0,91,0.00,,,0.11,,2013-08-08 10:12:00,
2013-08-08 06:43:00,65.0,62.0,30.12,WSW,250,3.0,10.0,91,0.00,,,0.11,,2013-08-08 10:43:00,
2013-08-08 06:52:00,65.0,62.0,30.12,WSW,255,2.0,12.0,89,0.00,,,0.11,,2013-08-08 10:52:00,
2013-08-08 07:02:00,65.0,62.0,30.12,WSW,255,2.0,12.0,89,0.00,,,0.11,,2013-08-08 11:02:00,
2013-08-08 07:11:00,65.0,61.0,30.13,WSW,250,3.0,8.0,88,0.00,,,0.11,,2013-08-08 11:11:00,
2013-08-08 07:22:00,65.0,61.0,30.13,WSW,258,2.0,10.0,88,0.00,,,0.11,,2013-08-08 11:22:00,
2013-08-08 07:43:00,66.0,62.0,30.13,SW,230,2.0,9.0,88,0.00,,,0.11,,2013-08-08 11:43:00,
2013-08-08 07:52:00,66.0,62.0,30.12,SSW,208,3.0,10.0,88,0.00,,,0.11,,2013-08-08 11:52:00,
2013-08-08 08:01:00,66.0,62.0,30.12,SSW,208,3.0,10.0,88,0.00,,,0.11,,2013-08-08 12:01:00,
2013-08-08 08:11:00,67.0,64.0,30.13,WSW,251,1.0,7.0,89,0.00,,,0.11,,2013-08-08 12:11:00,
2013-08-08 08:22:00,67.0,64.0,30.13,North,0,0.0,6.0,89,0.00,,,0.11,,2013-08-08 12:22:00,
2013-08-08 08:32:00,67.0,64.0,30.13,North,0,0.0,6.0,89,0.00,,,0.11,,2013-08-08 12:32:00,
2013-08-08 08:43:00,67.0,64.0,30.13,North,0,0.0,4.0,90,0.00,,,0.11,,2013-08-08 12:43:00,
2013-08-08 08:53:00,67.0,64.0,30.14,North,0,0.0,2.0,89,0.00,,,0.11,,2013-08-08 12:53:00,
2013-08-08 09:01:00,67.0,64.0,30.14,North,0,0.0,2.0,89,0.00,,,0.11,,2013-08-08 13:01:00,
2013-08-08 09:12:00,67.0,64.0,30.14,North,0,0.0,6.0,90,0.00,,,0.11,,2013-08-08 13:12:00,
2013-08-08 09:22:00,67.0,64.0,30.14,WSW,239,1.0,5.0,90,0.00,,,0.11,,2013-08-08 13:22:00,
2013-08-08 09:43:00,68.0,64.0,30.14,SW,223,1.0,5.0,88,0.00,,,0.11,,2013-08-08 13:43:00,
2013-08-08 09:53:00,68.0,64.0,30.14,North,0,0.0,3.0,88,0.00,,,0.11,,2013-08-08 13:53:00,
2013-08-08 10:02:00,68.0,64.0,30.14,North,0,0.0,3.0,88,0.00,,,0.11,,2013-08-08 14:02:00,
2013-08-08 10:11:00,69.0,65.0,30.14,WSW,255,1.0,4.0,87,0.00,,,0.11,,2013-08-08 14:11:00,
2013-08-08 10:22:00,70.0,66.0,30.14,North,0,0.0,4.0,88,0.00,,,0.11,,2013-08-08 14:22:00,
2013-08-08 10:43:00,70.0,66.0,30.14,WNW,282,1.0,3.0,86,0.00,,,0.11,,2013-08-08 14:43:00,
2013-08-08 10:53:00,70.0,65.0,30.14,North,0,0.0,2.0,85,0.00,,,0.11,,2013-08-08 14:53:00,
2013-08-08 11:02:00,71.0,66.0,30.14,South,177,1.0,5.0,85,0.00,,,0.11,,2013-08-08 15:02:00,
2013-08-08 11:12:00,71.0,66.0,30.14,South,177,1.0,5.0,85,0.00,,,0.11,,2013-08-08 15:12:00,
2013-08-08 11:22:00,70.0,66.0,30.15,West,278,1.0,6.0,86,0.00,,,0.11,,2013-08-08 15:22:00,
2013-08-08 11:32:00,70.0,66.0,30.15,West,278,1.0,6.0,86,0.00,,,0.11,,2013-08-08 15:32:00,
2013-08-08 11:43:00,71.0,67.0,30.15,WNW,282,1.0,4.0,86,0.00,,,0.11,,2013-08-08 15:43:00,
2013-08-08 11:53:00,71.0,67.0,30.15,North,0,0.0,5.0,86,0.00,,,0.11,,2013-08-08 15:53:00,
2013-08-08 12:02:00,71.0,67.0,30.15,North,0,0.0,5.0,86,0.00,,,0.11,,2013-08-08 16:02:00,
2013-08-08 12:11:00,72.0,68.0,30.15,WNW,283,1.0,5.0,86,0.00,,,0.11,,2013-08-08 16:11:00,
2013-08-08 12:22:00,73.0,68.0,30.15,North,0,0.0,4.0,83,0.00,,,0.11,,2013-08-08 16:22:00,
2013-08-08 12:32:00,73.0,68.0,30.15,North,0,0.0,2.0,84,0.00,,,0.11,,2013-08-08 16:32:00,
2013-08-08 12:42:00,73.0,68.0,30.15,North,0,0.0,2.0,84,0.00,,,0.11,,2013-08-08 16:42:00,
2013-08-08 12:52:00,72.0,67.0,30.15,NW,325,1.0,5.0,84,0.00,,,0.11,,2013-08-08 16:52:00,
2013-08-08 13:02:00,72.0,67.0,30.15,NW,325,1.0,5.0,84,0.00,,,0.11,,2013-08-08 17:02:00,
2013-08-08 13:11:00,72.0,67.0,30.14,West,277,1.0,6.0,83,0.00,,,0.11,,2013-08-08 17:11:00,
2013-08-08 13:22:00,73.0,67.0,30.14,North,0,0.0,2.0,82,0.00,,,0.11,,2013-08-08 17:22:00,
2013-08-08 13:43:00,74.0,68.0,30.14,North,0,0.0,3.0,83,0.00,,,0.11,,2013-08-08 17:43:00,
2013-08-08 13:52:00,75.0,69.0,30.14,North,0,0.0,1.0,82,0.00,,,0.11,,2013-08-08 17:52:00,
2013-08-08 14:01:00,75.0,69.0,30.14,North,0,0.0,1.0,82,0.00,,,0.11,,2013-08-08 18:01:00,
2013-08-08 14:11:00,73.0,68.0,30.13,North,0,0.0,2.0,85,0.00,,,0.11,,2013-08-08 18:11:00,
2013-08-08 14:22:00,72.0,68.0,30.13,North,0,0.0,2.0,88,0.00,,,0.11,,2013-08-08 18:22:00,
2013-08-08 14:32:00,72.0,68.0,30.13,North,0,0.0,2.0,88,0.00,,,0.11,,2013-08-08 18:32:00,
2013-08-08 14:43:00,71.0,68.0,30.13,North,0,0.0,1.0,90,0.00,,,0.11,,2013-08-08 18:43:00,
2013-08-08 14:53:00,72.0,69.0,30.13,North,0,0.0,1.0,90,0.00,,,0.11,,2013-08-08 18:53:00,
2013-08-08 15:01:00,72.0,69.0,30.13,North,0,0.0,1.0,90,0.00,,,0.11,,2013-08-08 19:01:00,
2013-08-08 15:12:00,71.0,68.0,30.12,WNW,286,1.0,3.0,90,0.00,,,0.11,,2013-08-08 19:12:00,
2013-08-08 15:22:00,71.0,68.0,30.12,North,0,0.0,3.0,90,0.00,,,0.11,,2013-08-08 19:22:00,
2013-08-08 15:43:00,71.0,68.0,30.12,North,0,0.0,2.0,90,0.00,,,0.11,,2013-08-08 19:43:00,
2013-08-08 15:58:00,70.0,67.0,30.11,North,0,0.0,2.0,91,0.00,,,0.11,,2013-08-08 19:58:00,
2013-08-08 16:11:00,70.0,68.0,30.11,West,278,1.0,3.0,93,0.00,,,0.11,,2013-08-08 20:11:00,
2013-08-08 16:22:00,70.0,68.0,30.11,North,0,0.0,2.0,93,0.00,,,0.11,,2013-08-08 20:22:00,
2013-08-08 16:42:00,71.0,69.0,30.11,North,0,0.0,2.0,93,0.00,,,0.11,,2013-08-08 20:42:00,
2013-08-08 16:53:00,70.0,68.0,30.12,North,0,0.0,1.0,94,0.00,,,0.10,,2013-08-08 20:53:00,
2013-08-08 17:01:00,70.0,68.0,30.12,North,0,0.0,1.0,94,0.00,,,0.07,,2013-08-08 21:01:00,
2013-08-08 17:14:00,70.0,68.0,30.12,North,0,0.0,1.0,94,0.00,,,0.07,,2013-08-08 21:14:00,
2013-08-08 17:25:00,70.0,68.0,30.12,North,0,0.0,3.0,94,0.01,,,0.05,,2013-08-08 21:25:00,
2013-08-08 17:34:00,70.0,68.0,30.12,North,0,0.0,3.0,94,0.01,,,0.05,,2013-08-08 21:34:00,
2013-08-08 17:45:00,70.0,68.0,30.11,North,0,0.0,4.0,93,0.01,,,0.01,,2013-08-08 21:45:00,
2013-08-08 17:57:00,70.0,68.0,30.11,North,0,0.0,6.0,92,0.01,,,0.01,,2013-08-08 21:57:00,
2013-08-08 18:16:00,70.0,68.0,30.12,North,0,0.0,8.0,92,0.01,,,0.01,,2013-08-08 22:16:00,
2013-08-08 18:25:00,70.0,67.0,30.12,North,0,0.0,6.0,91,0.00,,,0.01,,2013-08-08 22:25:00,
2013-08-08 18:35:00,69.0,67.0,30.12,North,0,0.0,5.0,92,0.02,,,0.03,,2013-08-08 22:35:00,
2013-08-08 18:47:00,69.0,67.0,30.12,North,0,0.0,5.0,92,0.02,,,0.03,,2013-08-08 22:47:00,
2013-08-08 18:58:00,69.0,67.0,30.11,North,0,0.0,5.0,92,0.02,,,0.03,,2013-08-08 22:58:00,
2013-08-08 19:05:00,69.0,67.0,30.11,North,0,0.0,5.0,92,0.02,,,0.03,,2013-08-08 23:05:00,
2013-08-08 19:46:00,69.0,67.0,30.11,North,0,0.0,3.0,93,0.00,,,0.03,,2013-08-08 23:46:00,
2013-08-08 19:57:00,68.0,67.0,30.12,North,0,0.0,3.0,96,0.00,,,0.03,,2013-08-08 23:57:00,
2013-08-08 20:05:00,68.0,67.0,30.12,North,0,0.0,5.0,96,0.00,,,0.03,,2013-08-09 00:05:00,
2013-08-08 20:15:00,68.0,67.0,30.12,North,0,0.0,5.0,96,0.00,,,0.03,,2013-08-09 00:15:00,
2013-08-08 20:24:00,68.0,67.0,30.12,West,279,1.0,5.0,97,0.00,,,0.03,,2013-08-09 00:24:00,
2013-08-08 20:34:00,68.0,67.0,30.12,North,0,0.0,3.0,97,0.00,,,0.03,,2013-08-09 00:34:00,
2013-08-08 20:45:00,68.0,67.0,30.12,North,0,0.0,3.0,97,0.00,,,0.03,,2013-08-09 00:45:00,
2013-08-08 20:56:00,68.0,67.0,30.12,North,0,0.0,4.0,97,0.00,,,0.03,,2013-08-09 00:56:00,
2013-08-08 21:03:00,68.0,67.0,30.12,SW,217,3.0,8.0,96,0.00,,,0.03,,2013-08-09 01:03:00,
2013-08-08 21:26:00,68.0,66.0,30.11,WNW,286,3.0,8.0,94,0.00,,,0.03,,2013-08-09 01:26:00,
2013-08-08 21:35:00,68.0,66.0,30.11,WNW,286,3.0,8.0,94,0.00,,,0.03,,2013-08-09 01:35:00,
2013-08-08 21:46:00,68.0,66.0,30.11,WSW,254,3.0,9.0,94,0.00,,,0.03,,2013-08-09 01:46:00,
2013-08-08 21:59:00,68.0,66.0,30.12,SSW,205,3.0,11.0,93,0.00,,,0.03,,2013-08-09 01:59:00,
2013-08-08 22:04:00,68.0,66.0,30.12,West,267,2.0,9.0,93,0.00,,,0.03,,2013-08-09 02:04:00,
2013-08-08 22:14:00,68.0,66.0,30.12,West,267,2.0,9.0,93,0.00,,,0.03,,2013-08-09 02:14:00,
2013-08-08 22:57:00,68.0,66.0,30.12,WSW,251,5.0,12.0,92,0.00,,,0.03,,2013-08-09 02:57:00,
2013-08-08 23:07:00,68.0,66.0,30.12,WSW,251,5.0,12.0,92,0.00,,,0.03,,2013-08-09 03:07:00,
2013-08-08 23:15:00,68.0,66.0,30.12,West,259,3.0,11.0,92,0.00,,,0.03,,2013-08-09 03:15:00,
2013-08-08 23:24:00,68.0,66.0,30.12,WSW,238,5.0,15.0,93,0.00,,,0.03,,2013-08-09 03:24:00,
2013-08-08 23:46:00,68.0,66.0,30.12,West,265,4.0,12.0,93,0.00,,,0.03,,2013-08-09 03:46:00,
2013-08-08 23:56:00,68.0,66.0,30.12,SW,226,4.0,13.0,93,0.00,,,0.03,,2013-08-09 03:56:00,